TimeCDT,TemperatureF,Dew PointF,Humidity,Sea Level PressureIn,VisibilityMPH,Wind Direction,Wind SpeedMPH,Gust SpeedMPH,PrecipitationIn,Events,Conditions,WindDirDegrees,DateUTC
12:52 AM,39.0,25.0,57,30.09,10.0,West,3.5,-,N/A,,Clear,270,2011-10-31 05:52:00
1:52 AM,37.0,24.1,59,30.10,10.0,Calm,Calm,-,N/A,,Clear,0,2011-10-31 06:52:00
2:52 AM,35.1,28.0,76,30.11,10.0,Calm,Calm,-,N/A,,Clear,0,2011-10-31 07:52:00
3:52 AM,32.0,26.1,79,30.12,10.0,SE,3.5,-,N/A,,Clear,130,2011-10-31 08:52:00
4:52 AM,34.0,26.1,73,30.11,10.0,Calm,Calm,-,N/A,,Clear,0,2011-10-31 09:52:00
5:52 AM,34.0,26.1,73,30.11,10.0,Calm,Calm,-,N/A,,Clear,0,2011-10-31 10:52:00
6:52 AM,30.9,26.1,82,30.12,10.0,Calm,Calm,-,N/A,,Clear,0,2011-10-31 11:52:00
7:52 AM,30.9,25.0,79,30.11,10.0,Calm,Calm,-,N/A,,Clear,0,2011-10-31 12:52:00
8:52 AM,34.0,28.0,79,30.11,10.0,South,3.5,-,N/A,,Clear,170,2011-10-31 13:52:00
9:52 AM,39.9,28.0,63,30.11,10.0,SE,6.9,-,N/A,,Clear,140,2011-10-31 14:52:00
10:52 AM,46.0,27.0,47,30.09,10.0,South,6.9,-,N/A,,Clear,180,2011-10-31 15:52:00
11:52 AM,52.0,27.0,38,30.08,10.0,SSE,10.4,-,N/A,,Partly Cloudy,160,2011-10-31 16:52:00
12:52 PM,57.0,26.1,30,30.04,10.0,South,13.8,-,N/A,,Clear,170,2011-10-31 17:52:00
1:52 PM,60.1,24.1,25,30.00,10.0,South,16.1,-,N/A,,Clear,170,2011-10-31 18:52:00
2:52 PM,62.1,24.1,23,29.98,10.0,South,12.7,-,N/A,,Clear,170,2011-10-31 19:52:00
3:52 PM,63.0,26.1,25,29.95,10.0,South,16.1,-,N/A,,Clear,170,2011-10-31 20:52:00
4:52 PM,64.0,28.0,26,29.94,10.0,South,12.7,-,N/A,,Clear,180,2011-10-31 21:52:00
5:52 PM,62.1,28.0,28,29.92,10.0,SSE,13.8,-,N/A,,Clear,160,2011-10-31 22:52:00
6:52 PM,57.0,28.0,33,29.93,10.0,SSE,11.5,-,N/A,,Clear,150,2011-10-31 23:52:00
7:52 PM,55.9,28.0,34,29.94,10.0,SSE,11.5,-,N/A,,Clear,150,2011-11-01 00:52:00
8:52 PM,55.4,30.2,38,29.93,10.0,SE,10.4,-,N/A,,Clear,140,2011-11-01 01:52:00
9:52 PM,54.0,30.0,40,29.94,10.0,SSE,11.5,-,N/A,,Clear,150,2011-11-01 02:52:00
10:52 PM,53.1,30.9,43,29.92,10.0,SE,15.0,-,N/A,,Clear,140,2011-11-01 03:52:00
11:52 PM,51.8,30.2,44,29.90,10.0,SSE,12.7,-,N/A,,Clear,160,2011-11-01 04:52:00